Back to catalog

DELTA 1 DEB

AliveLEO
NORAD 10208·DEBRIS·🇺🇸 United States

Launched Jul 14, 1977 from Cape Canaveral Space Force Station

Loading…

Next Passes (next 24 hours)

TLE

FreshSource: Space-Track

Epoch: Sep 14, 2026, 05:04 UTC

1 10208U 77065AM  26257.21172602  .00004204  00000-0  47521-3 0  9991
2 10208  28.9321 218.5077 0311773 104.7936 258.7402 14.55039416458654

Track DELTA 1 DEB in real time with AllMySat

Download on the App Store